sat.trackr.live / text

‹ back to catalog

STARLINK-32848

NORAD 62808 · 2025-018C

PAYLOAD ACTIVE UNKNOWN

§ Identity

Operator
Country
US
Launch date
2025-01-24
Launch site
AFWTR
Launch vehicle
Mass (kg)
RCS (m²)

Purposes: comms

External: N2YO · Heavens-Above · Gunter

§ Orbital elements

Epoch: 2026-05-24T20:26:02.171328Z

Period
94.01 min
Inclination
53.1601°
Eccentricity
0.0000660
Mean motion
15.31713687 rev/d
Perigee alt
470.2 km
Apogee alt
471.2 km
Semi-major
6,848.8 km
B*
7.2285e-4
RAAN
315.5128°
Arg perigee
105.4138°
Mean anomaly
254.6937°
Rev number
7,483

§ Raw data

STARLINK-328481 62808U 25018C   26144.85141402  .00022142  00000+0  72285-3 0  99992 62808  53.1601 315.5128 0000660 105.4138 254.6937 15.31713687 74831

JSON: /api/v1/satellites/62808 · /tle

For live sub-satellite position, see the globe view (requires WebGL).

§ Visibility from observer

Set your observer location to see the next 7 days of passes ≥ 10°. The values pass through the URL so the page stays shareable.

No JS? Fill the form by hand. The geolocation button needs JavaScript.